This is the latest recevied weather packets stored in our database for station/object KF6FPU-15. If no packets are shown the sender has not sent any weather packets the latest 10 day(s).
| Time | Temp. | Humidity | Pressure | Rain* | Wind** | Luminosity | Snow |
|---|---|---|---|---|---|---|---|
| 1777427512 | 30.56° C | 19% | 1017.2 hPa | - | - | - | - |
| 1777426912 | 31.11° C | 19% | 1017.2 hPa | - | - | - | - |
| 1777426312 | 31.11° C | 19% | 1017.2 hPa | - | - | - | - |
| 1777425712 | 31.11° C | 19% | 1017.2 hPa | - | - | - | - |
| 1777425112 | 31.67° C | 19% | 1017.2 hPa | - | - | - | - |
| 1777424512 | 31.67° C | 18% | 1017.1 hPa | - | - | - | - |
| 1777423912 | 31.67° C | 19% | 1017.1 hPa | - | - | - | - |
| 1777423312 | 32.22° C | 19% | 1017.2 hPa | - | - | - | - |
| 1777422712 | 32.22° C | 18% | 1017.3 hPa | - | - | - | - |
| 1777421512 | 32.78° C | 18% | 1017.3 hPa | - | - | - | - |
| 1777420912 | 32.78° C | 18% | 1017.3 hPa | - | - | - | - |
| 1777420312 | 32.78° C | 18% | 1017.2 hPa | - | - | - | - |
| 1777419712 | 32.78° C | 18% | 1017.3 hPa | - | - | - | - |
| 1777419112 | 32.22° C | 18% | 1017.3 hPa | - | - | - | - |
| 1777418512 | 32.78° C | 18% | 1017.4 hPa | - | - | - | - |
| 1777417912 | 32.78° C | 18% | 1017.4 hPa | - | - | - | - |
| 1777417312 | 32.78° C | 18% | 1017.4 hPa | - | - | - | - |
| 1777416712 | 32.22° C | 18% | 1017.4 hPa | - | - | - | - |
| 1777416112 | 30° C | 18% | 1017.5 hPa | - | - | - | - |
| 1777414912 | 31.11° C | 18% | 1017.6 hPa | - | - | - | - |
| 1777414312 | 30° C | 18% | 1017.8 hPa | - | - | - | - |
| 1777413712 | 31.11° C | 18% | 1018 hPa | - | - | - | - |
| 1777413112 | 31.67° C | 18% | 1018.2 hPa | - | - | - | - |
| 1777412512 | 32.22° C | 18% | 1018.3 hPa | - | - | - | - |
| 1777411912 | 32.22° C | 18% | 1018.4 hPa | - | - | - | - |
* Rain since midnight (hover to see other rain measurements)
** Current wind speed in m/s (hover to see current wind gust speed)